Home > Time Zones > World Clock > Weather > U.S.A. > Waco > Past weeks

Flag for U.S.A. Weather past 2 weeks in Waco, Texas, U.S.A.

Now
76 °F

Clear.


Feels Like: 76 °F
Forecast: 70 / 84 °F
Wind: 10 mph from Southeast

Location: Waco Regional Airport

Current Time: May 28, 2015 at 1:16:25 AM

Latest Report: May 27, 2015 at 11:51 PM


Visibility: 10 mi

Pressure: 30.02 "Hg

Humidity: 85%

Dew point: 71 °F

Location of WacoLocation

Historic Weather in Waco — Graph

°F

Waco temperature yesterday

Maximum temperature yesterday: 87 °F (at 3:51 PM)
Minimum temperature yesterday: 63 °F (at 5:51 AM)
Average temperature yesterday: 75 °F

Past Weeks' High & Low Weather Summary

 TemperatureHumidityPressure
High89 °F (May 20, 3:51 PM)100% (May 14, 6:51 AM)30.17 "Hg (May 14, 6:51 AM)
Low61 °F (May 21, 6:51 AM)52% (May 20, 3:51 PM)29.74 "Hg (May 16, 6:51 PM)
Average73 °F84%29.97 "Hg
* Reported May 12 11:51 PM — May 27 11:51 PM, Waco, Weather by CustomWeather, © 2015

Note: Actual official high and low records may vary slightly from our data, if they occured in-between our weather recording intervals... More about our weather records

Advertising

Waco weather history for previous 24 hours

 ConditionsComfort  
Time TempWeatherWind HumidityBarometerVisibility
11:51 PM
Wed, May 27
76 °FClear.10 mph85%30.02 "Hg10 mi
10:51 PM77 °FClear.9 mph82%30.02 "Hg10 mi
9:51 PM79 °FClear.12 mph74%30.01 "Hg10 mi
8:51 PM80 °FMostly cloudy.8 mph74%29.99 "Hg10 mi
7:51 PM82 °FMore clouds than sun.10 mph70%29.97 "Hg10 mi
6:51 PM84 °FPassing clouds.6 mph67%29.96 "Hg10 mi
5:51 PM81 °FSunny.7 mph72%29.98 "Hg10 mi
4:51 PM84 °FSunny.14 mph63%29.98 "Hg10 mi
3:51 PM87 °FPassing clouds.12 mph59%30.00 "Hg10 mi
2:51 PM85 °FBroken clouds.8 mph63%30.02 "Hg10 mi
1:51 PM84 °FPartly sunny.8 mph67%30.03 "Hg10 mi
12:51 PM83 °FPassing clouds.8 mph65%30.06 "Hg10 mi
11:51 AM79 °FSunny.6 mph67%30.07 "Hg10 mi
10:51 AM76 °FPassing clouds.9 mph69%30.07 "Hg10 mi
9:51 AM73 °FPassing clouds.8 mph79%30.08 "Hg10 mi
8:51 AM69 °FSunny.12 mph84%30.06 "Hg10 mi
7:51 AM66 °FSunny.7 mph93%30.03 "Hg10 mi
6:51 AM63 °FClear.No wind93%30.01 "Hg10 mi
5:51 AM63 °FClear.6 mph93%29.99 "Hg10 mi
4:51 AM65 °FPassing clouds.10 mph91%29.93 "Hg10 mi
3:58 AM65 °FLight rain. Passing clouds.14 mph94%30.03 "Hg10 mi
2:51 AM65 °FPassing clouds.7 mph91%30.03 "Hg10 mi
2:00 AM65 °FThundershowers. Passing clouds.14 mph91%30.07 "Hg10 mi
Weather by CustomWeather, © 2015

See weather overviewHow to use our weather pages